EW2353 Weather Reports


Display with metric or nautical units.
time (UTC)temp
F
wind
direction
speed
MPH
gust
MPH
rain 1hr
in
rain 24hr
in
rain mn
in
humidity
%
barometer
mb
20260510220832 70 285 1.0 6.0 0.00 0.00 0.00 46 1017.5
20260510220324 69 327 2.0 9.0 0.00 0.00 0.00 43 1017.5
20260510215837 70 335 4.0 9.0 0.00 0.00 0.00 43 1017.5
20260510215333 70 339 2.0 6.0 0.00 0.00 0.00 41 1017.5
20260510214825 70 30 3.0 7.0 0.00 0.00 0.00 41 1017.5
20260510214317 70 354 2.0 9.0 0.00 0.00 0.00 43 1017.5
20260510213810 71 40 2.0 9.0 0.00 0.00 0.00 40 1017.5
20260510213344 72 265 1.0 6.0 0.00 0.00 0.00 45 1017.4
20260510212835 72 96 0.0 4.0 0.00 0.00 0.00 46 1017.4
20260510212327 71 7 1.0 4.0 0.00 0.00 0.00 42 1017.2
20260510211820 70 275 1.0 4.0 0.00 0.00 0.00 45 1017.2
20260510211312 70 330 1.0 8.0 0.00 0.00 0.00 42 1017.1
20260510210809 70 27 4.0 9.0 0.00 0.00 0.00 42 1017.1
20260510210322 70 34 4.0 9.0 0.00 0.00 0.00 45 1017.1
20260510205816 71 280 3.0 7.0 0.00 0.00 0.00 44 1016.8
20260510205328 72 29 1.0 6.0 0.00 0.00 0.00 41 1016.8
20260510204821 72 30 1.0 5.0 0.00 0.00 0.00 46 1016.8
20260510204314 71 271 0.0 5.0 0.00 0.00 0.00 46 1016.9
20260510203827 71 1 1.0 6.0 0.00 0.00 0.00 47 1016.9
20260510203319 71 273 1.0 5.0 0.00 0.00 0.00 42 1016.9
20260510202816 71 241 0.0 6.0 0.00 0.00 0.00 46 1016.9
20260510202309 71 298 1.0 10.0 0.00 0.00 0.00 45 1017.0
20260510201822 70 327 2.0 10.0 0.00 0.00 0.00 47 1017.0
20260510201315 70 325 0.0 8.0 0.00 0.00 0.00 44 1017.0
20260510200828 69 315 2.0 6.0 0.00 0.00 0.00 50 1017.1
20260510200321 69 319 1.0 6.0 0.00 0.00 0.00 43 1017.2
20260510195813 69 4 1.0 6.0 0.00 0.00 0.00 48 1017.3
20260510195326 69 337 0.0 10.0 0.00 0.00 0.00 45 1017.3
20260510194823 68 347 3.0 10.0 0.00 0.00 0.00 50 1017.3
20260510194316 68 1 1.0 8.0 0.00 0.00 0.00 49 1017.3
20260510193829 68 42 5.0 8.0 0.00 0.00 0.00 47 1017.3
20260510193322 68 32 5.0 8.0 0.00 0.00 0.00 50 1017.4
20260510192814 68 18 3.0 8.0 0.00 0.00 0.00 50 1017.3
20260510192328 68 69 1.0 8.0 0.00 0.00 0.00 47 1017.4
20260510191820 68 35 4.0 8.0 0.00 0.00 0.00 48 1017.4
20260510191333 69 352 3.0 7.0 0.00 0.00 0.00 47 1017.5
20260510190809 69 274 2.0 5.0 0.00 0.00 0.00 48 1017.5
20260510190322 69 275 2.0 8.0 0.00 0.00 0.00 55 1017.6
20260510185814 69 331 3.0 8.0 0.00 0.00 0.00 50 1017.5
20260510185328 68 227 1.0 11.0 0.00 0.00 0.00 51 1017.3
20260510184820 69 39 4.0 9.0 0.00 0.00 0.00 49 1017.5
20260510184313 69 274 2.0 9.0 0.00 0.00 0.00 53 1017.5
20260510183826 68 343 2.0 7.0 0.00 0.00 0.00 49 1017.4
20260510183319 68 217 1.0 6.0 0.00 0.00 0.00 46 1017.5
20260510182816 69 249 1.0 8.0 0.00 0.00 0.00 46 1017.5
20260510182329 69 326 2.0 8.0 0.00 0.00 0.00 49 1017.4
20260510181312 68 305 1.0 7.0 0.00 0.00 0.00 53 1017.4
20260510180825 69 274 2.0 6.0 0.00 0.00 0.00 49 1017.5
20260510180317 69 255 2.0 6.0 0.00 0.00 0.00 52 1017.6
20260510175830 69 191 1.0 5.0 0.00 0.00 0.00 52 1017.5
20260510175322 69 317 2.0 6.0 0.00 0.00 0.00 53 1017.5
20260510174815 68 249 1.0 8.0 0.00 0.00 0.00 52 1017.4
20260510174311 68 336 2.0 8.0 0.00 0.00 0.00 54 1017.5
20260510173824 68 265 2.0 9.0 0.00 0.00 0.00 54 1017.6
20260510173317 67 316 2.0 9.0 0.00 0.00 0.00 52 1017.5
20260510172810 68 13 5.0 9.0 0.00 0.00 0.00 47 1017.6
20260510172323 68 278 2.0 8.0 0.00 0.00 0.00 57 1017.7
20260510171816 67 319 3.0 10.0 0.00 0.00 0.00 50 1017.8
20260510171328 67 333 5.0 10.0 0.00 0.00 0.00 48 1017.7
20260510170821 66 290 3.0 10.0 0.00 0.00 0.00 53 1017.7
20260510170318 67 41 6.0 10.0 0.00 0.00 0.00 47 1017.5
20260510165811 67 70 1.0 12.0 0.00 0.00 0.00 50 1017.1
20260510165324 67 314 6.0 12.0 0.00 0.00 0.00 47 1017.2
20260510164817 67 330 1.0 9.0 0.00 0.00 0.00 47 1017.3
20260510164350 67 27 6.0 9.0 0.00 0.00 0.00 47 1017.2
20260510163822 67 338 3.0 7.0 0.00 0.00 0.00 50 1017.1
20260510163314 67 68 2.0 10.0 0.00 0.00 0.00 50 1017.1
20260510162828 66 15 4.0 10.0 0.00 0.00 0.00 51 1017.2
20260510162341 66 26 5.0 10.0 0.00 0.00 0.00 50 1017.4
20260510161816 66 57 4.0 13.0 0.00 0.00 0.00 51 1017.2
20260510161329 66 33 4.0 13.0 0.00 0.00 0.00 50 1017.4
20260510160822 65 52 1.0 9.0 0.00 0.00 0.00 52 1017.2
20260510160314 66 47 3.0 9.0 0.00 0.00 0.00 51 1017.2
20260510155826 66 350 3.0 8.0 0.00 0.00 0.00 53 1017.2
20260510155319 65 4 0.0 8.0 0.00 0.00 0.00 51 1017.2
20260510154813 65 130 4.0 8.0 0.00 0.00 0.00 55 1017.1
20260510154309 64 83 1.0 9.0 0.00 0.00 0.00 52 1017.2
20260510153822 64 78 4.0 9.0 0.00 0.00 0.00 53 1017.2
20260510153315 64 329 1.0 8.0 0.00 0.00 0.00 53 1017.2
20260510152828 64 41 4.0 10.0 0.00 0.00 0.00 58 1017.2
20260510152340 63 65 6.0 13.0 0.00 0.00 0.00 53 1017.1
20260510151812 63 13 2.0 9.0 0.00 0.00 0.00 57 1017.0
20260510151322 63 27 5.0 9.0 0.00 0.00 0.00 54 1016.9
20260510150815 63 54 3.0 7.0 0.00 0.00 0.00 55 1016.9
20260510150328 63 77 5.0 9.0 0.00 0.00 0.00 54 1016.9
20260510145825 63 60 6.0 11.0 0.00 0.00 0.00 53 1016.8
20260510145318 63 60 7.0 11.0 0.00 0.00 0.00 52 1016.9
20260510144810 63 73 4.0 9.0 0.00 0.00 0.00 53 1016.7
20260510144323 62 37 4.0 11.0 0.00 0.00 0.00 52 1016.7
20260510143816 63 32 6.0 11.0 0.00 0.00 0.00 52 1016.7
20260510143309 63 35 4.0 9.0 0.00 0.00 0.00 51 1016.6
20260510142842 62 39 5.0 9.0 0.00 0.00 0.00 51 1016.5
20260510142314 63 41 4.0 11.0 0.00 0.00 0.00 53 1016.6
20260510141811 62 65 6.0 11.0 0.00 0.00 0.00 55 1016.5
20260510141343 62 69 6.0 10.0 0.00 0.00 0.00 52 1016.5
20260510140815 62 360 5.0 9.0 0.00 0.00 0.00 55 1016.4
20260510140328 62 22 5.0 11.0 0.00 0.00 0.00 56 1016.4
20260510135841 61 37 6.0 13.0 0.00 0.00 0.00 54 1016.2
20260510135313 61 34 7.0 13.0 0.00 0.00 0.00 53 1016.2
20260510134843 62 50 5.0 11.0 0.00 0.00 0.00 56 1016.1
20260510134314 62 64 6.0 10.0 0.00 0.00 0.00 57 1016.0
20260510133828 61 58 5.0 11.0 0.00 0.00 0.00 59 1015.9
20260510133321 61 31 5.0 11.0 0.00 0.00 0.00 59 1015.7
20260510132817 60 44 6.0 11.0 0.00 0.00 0.00 60 1015.5
20260510132310 60 65 7.0 12.0 0.00 0.00 0.00 62 1015.4
20260510131823 60 51 7.0 14.0 0.00 0.00 0.00 61 1015.3
20260510131315 60 32 7.0 14.0 0.00 0.00 0.00 63 1015.2
20260510130828 60 26 7.0 10.0 0.00 0.00 0.00 63 1015.2
20260510130320 59 53 6.0 10.0 0.00 0.00 0.00 64 1015.0
20260510125813 59 52 5.0 10.0 0.00 0.00 0.00 65 1015.0
20260510125326 59 46 6.0 12.0 0.00 0.00 0.00 64 1015.0
20260510124839 59 33 7.0 11.0 0.00 0.00 0.00 65 1014.9
20260510124335 59 47 4.0 12.0 0.00 0.00 0.00 66 1014.8
20260510123827 58 25 6.0 11.0 0.00 0.00 0.00 66 1014.8
20260510123319 58 38 6.0 11.0 0.00 0.00 0.00 67 1014.7
20260510122812 58 55 7.0 11.0 0.00 0.00 0.00 67 1014.6
20260510122325 58 62 3.0 9.0 0.00 0.00 0.00 69 1014.6
20260510121818 57 51 5.0 13.0 0.00 0.00 0.00 70 1014.6
20260510121311 57 18 7.0 13.0 0.00 0.00 0.00 68 1014.4
20260510120824 57 16 5.0 11.0 0.00 0.00 0.00 70 1014.4
20260510120320 57 44 6.0 11.0 0.00 0.00 0.00 71 1014.3
20260510115814 57 7 4.0 6.0 0.00 0.00 0.00 72 1014.4
20260510115326 56 42 3.0 5.0 0.00 0.00 0.00 72 1014.2
20260510114819 56 44 3.0 7.0 0.00 0.01 0.00 72 1014.0
20260510114312 56 53 3.0 8.0 0.00 0.01 0.00 72 1013.9
20260510113825 56 358 4.0 8.0 0.00 0.01 0.00 72 1013.6
20260510113318 56 53 4.0 8.0 0.00 0.01 0.00 71 1013.4
20260510112811 56 44 4.0 8.0 0.00 0.01 0.00 71 1013.6
20260510112343 56 63 3.0 5.0 0.00 0.01 0.00 72 1013.5
20260510111819 56 46 2.0 5.0 0.00 0.01 0.00 73 1013.5
20260510111313 55 37 3.0 4.0 0.00 0.01 0.00 73 1013.5
20260510110825 55 38 2.0 4.0 0.00 0.01 0.00 75 1013.7
20260510110318 56 13 2.0 3.0 0.00 0.01 0.00 74 1013.8
20260510105810 56 51 1.0 3.0 0.00 0.01 0.00 73 1013.4
20260510105323 56 56 1.0 2.0 0.00 0.01 0.00 74 1013.6
20260510104815 56 335 0.0 3.0 0.00 0.02 0.00 73 1013.8
20260510104313 56 348 0.0 3.0 0.00 0.02 0.00 74 1013.8
20260510103825 56 19 0.0 3.0 0.00 0.02 0.00 74 1013.6
20260510103318 56 8 1.0 5.0 0.00 0.02 0.00 74 1013.5
20260510102810 56 14 2.0 5.0 0.00 0.02 0.00 74 1013.4
20260510102324 56 5 1.0 4.0 0.00 0.02 0.00 74 1013.2
20260510101816 56 18 1.0 7.0 0.00 0.02 0.00 74 1013.0
20260510101350 56 4 3.0 7.0 0.00 0.02 0.00 74 1012.9
20260510100821 56 356 4.0 7.0 0.00 0.02 0.00 74 1012.8
20260510100314 57 17 3.0 8.0 0.00 0.02 0.00 75 1012.7
20260510095811 57 37 4.0 8.0 0.00 0.02 0.00 75 1012.7
20260510095323 57 36 4.0 7.0 0.00 0.02 0.00 76 1012.6
20260510094315 57 29 3.0 6.0 0.00 0.10 0.00 78 1012.4
20260510093828 57 42 3.0 5.0 0.00 0.10 0.00 79 1012.5
20260510093321 57 5 3.0 6.0 0.00 0.10 0.00 78 1012.4
20260510092814 58 49 3.0 7.0 0.00 0.10 0.00 79 1012.4
20260510092311 58 40 3.0 7.0 0.00 0.10 0.00 81 1012.4
20260510091824 58 37 4.0 7.0 0.00 0.10 0.00 83 1012.3
20260510091317 58 28 4.0 7.0 0.00 0.10 0.00 85 1012.3
20260510090850 58 23 4.0 7.0 0.00 0.10 0.00 86 1012.2
20260510090322 59 6 3.0 5.0 0.00 0.10 0.00 87 1012.1
20260510085814 59 352 3.0 8.0 0.00 0.10 0.00 88 1012.1
20260510085327 58 346 3.0 8.0 0.00 0.10 0.00 89 1012.0
20260510084820 57 336 1.0 3.0 0.00 0.15 0.00 90 1012.0
20260510084313 57 240 0.0 1.0 0.00 0.15 0.00 89 1011.8
20260510083810 57 293 0.0 0.0 0.00 0.15 0.00 89 1011.7
20260510083322 57 274 0.0 2.0 0.00 0.15 0.00 89 1011.6
20260510082815 57 274 0.0 2.0 0.00 0.15 0.00 89 1011.6
20260510082348 57 253 0.0 0.0 0.00 0.15 0.00 89 1011.5
20260510081820 57 253 0.0 0.0 0.00 0.15 0.00 89 1011.4
20260510081313 57 253 0.0 0.0 0.00 0.15 0.00 89 1011.4
20260510080826 57 253 0.0 0.0 0.00 0.15 0.00 89 1011.3
20260510080318 57 253 0.0 0.0 0.00 0.15 0.00 88 1011.1
20260510075816 57 253 0.0 0.0 0.00 0.15 0.00 87 1010.9
20260510075328 57 253 0.0 0.0 0.00 0.15 0.00 86 1010.8
20260510074841 58 253 0.0 0.0 0.00 0.17 0.00 86 1010.8
20260510074334 58 253 0.0 0.0 0.00 0.17 0.00 85 1010.8
20260510073825 59 253 0.0 1.0 0.00 0.17 0.00 84 1010.7
20260510073318 59 253 0.0 1.0 0.00 0.17 0.00 83 1010.5
20260510072811 59 253 0.0 1.0 0.00 0.17 0.00 83 1010.6
20260510072324 60 253 0.0 2.0 0.00 0.17 0.00 82 1010.6
20260510071837 60 252 1.0 2.0 0.00 0.17 0.00 81 1010.6
20260510071328 61 245 1.0 2.0 0.00 0.17 0.00 81 1010.6
20260510070841 61 258 0.0 2.0 0.00 0.17 0.00 80 1010.6
20260510070317 61 271 0.0 3.0 0.00 0.17 0.00 79 1010.7
20260510065810 62 250 1.0 4.0 0.00 0.17 0.00 79 1010.6
20260510065322 62 281 1.0 5.0 0.00 0.17 0.00 79 1010.8
20260510064815 62 273 1.0 8.0 0.00 0.21 0.00 78 1010.7
20260510064328 62 335 2.0 8.0 0.00 0.21 0.00 78 1011.0
20260510063821 62 261 3.0 5.0 0.00 0.21 0.00 77 1010.6
20260510063314 63 272 3.0 7.0 0.00 0.21 0.00 76 1010.6
20260510062811 63 238 3.0 8.0 0.00 0.21 0.00 75 1010.5
20260510062324 63 245 3.0 8.0 0.00 0.21 0.00 75 1010.6
20260510061816 63 226 4.0 7.0 0.00 0.21 0.00 76 1010.7
20260510061350 63 261 4.0 7.0 0.00 0.21 0.00 75 1010.7
20260510060822 63 252 4.0 7.0 0.00 0.21 0.00 75 1010.7
20260510060314 63 252 4.0 6.0 0.00 0.21 0.00 76 1010.8
20260510055826 63 248 3.0 5.0 0.00 0.21 0.00 76 1010.7
20260510055339 63 243 3.0 6.0 0.00 0.21 0.00 76 1010.7
20260510054831 63 256 4.0 6.0 0.00 0.26 0.00 77 1010.8
20260510054322 63 261 4.0 6.0 0.00 0.26 0.00 77 1010.8
20260510053819 63 275 3.0 6.0 0.00 0.26 0.00 77 1010.8
20260510053312 63 255 3.0 6.0 0.00 0.26 0.00 76 1010.8
20260510052826 63 243 4.0 7.0 0.00 0.26 0.00 76 1010.7
20260510052318 63 242 4.0 7.0 0.00 0.26 0.00 77 1010.7
20260510051811 63 262 4.0 6.0 0.00 0.26 0.00 77 1010.7
20260510051323 62 245 3.0 5.0 0.00 0.26 0.00 78 1010.7
20260510050816 62 244 2.0 5.0 0.00 0.26 0.00 79 1010.7
20260510050329 62 263 3.0 5.0 0.00 0.26 0.00 78 1010.6
20260510045825 62 250 2.0 5.0 0.00 0.26 0.00 79 1010.7
20260510045318 62 243 3.0 5.0 0.00 0.26 0.00 78 1010.7
20260510044828 61 248 2.0 5.0 0.00 0.28 0.00 79 1010.7
20260510044341 60 238 2.0 4.0 0.00 0.28 0.00 80 1010.8
20260510043833 60 268 2.0 3.0 0.00 0.28 0.00 81 1010.7
20260510043345 60 269 1.0 2.0 0.00 0.28 0.00 81 1010.7
20260510042816 60 255 1.0 3.0 0.00 0.28 0.00 80 1010.6
20260510042330 60 248 2.0 3.0 0.00 0.28 0.00 79 1010.6
20260510041822 60 210 1.0 3.0 0.00 0.28 0.00 79 1010.6
20260510041315 60 259 2.0 3.0 0.00 0.28 0.00 80 1010.7
20260510040812 60 223 2.0 4.0 0.00 0.28 0.00 80 1010.8
20260510040325 60 264 1.0 4.0 0.00 0.28 0.00 81 1010.8
20260510035816 59 266 1.0 2.0 0.00 0.28 0.00 82 1010.7
20260510035349 58 230 0.0 3.0 0.00 0.28 0.00 82 1010.5
20260510034820 58 253 1.0 3.0 0.00 0.32 0.28 84 1010.6
20260510034313 57 221 0.0 0.0 0.00 0.32 0.28 85 1010.7
20260510033825 57 221 0.0 0.0 0.00 0.32 0.28 85 1010.6
20260510033317 57 221 0.0 0.0 0.00 0.32 0.28 85 1010.6
20260510032814 57 221 0.0 0.0 0.00 0.32 0.28 85 1010.6
20260510032327 57 221 0.0 0.0 0.00 0.32 0.28 85 1010.6
20260510031819 57 221 0.0 1.0 0.00 0.32 0.28 84 1010.6
20260510031332 57 221 0.0 1.0 0.00 0.32 0.28 85 1010.6
20260510030824 57 221 0.0 0.0 0.00 0.32 0.28 85 1010.6
20260510030337 57 221 0.0 0.0 0.00 0.32 0.28 85 1010.5
20260510025829 57 221 0.0 0.0 0.00 0.32 0.28 87 1010.4
20260510025322 57 221 0.0 0.0 0.00 0.32 0.28 85 1010.4
20260510024815 57 221 0.0 0.0 0.00 0.33 0.28 85 1010.3
20260510024311 57 221 0.0 0.0 0.00 0.33 0.28 84 1010.3
20260510023824 57 221 0.0 0.0 0.00 0.33 0.28 84 1010.3
20260510023317 58 221 0.0 0.0 0.00 0.33 0.28 83 1010.2
20260510022850 58 221 0.0 0.0 0.00 0.33 0.28 82 1010.1
20260510022322 58 221 0.0 0.0 0.00 0.33 0.28 82 1010.2
20260510021815 59 221 0.0 0.0 0.00 0.33 0.28 81 1010.1
20260510021348 59 221 0.0 1.0 0.00 0.33 0.28 80 1010.1
20260510020840 60 221 0.0 1.0 0.00 0.33 0.28 80 1010.1
20260510020311 60 221 0.0 0.0 0.00 0.33 0.28 80 1010.0
20260510015824 60 221 0.0 1.0 0.00 0.33 0.28 79 1010.0
20260510015321 60 221 0.0 1.0 0.00 0.33 0.28 79 1009.9
20260510014813 60 221 0.0 1.0 0.00 0.33 0.28 79 1009.8
20260510014326 60 221 0.0 1.0 0.00 0.33 0.28 79 1009.7
20260510013819 61 221 0.0 0.0 0.00 0.33 0.28 77 1009.6
20260510013312 61 221 0.0 1.0 0.00 0.33 0.28 75 1009.5
20260510012844 62 221 0.0 1.0 0.00 0.33 0.28 75 1009.4
20260510012336 63 221 0.0 1.0 0.00 0.33 0.28 73 1009.2
20260510011828 64 221 0.0 1.0 0.00 0.33 0.28 72 1009.2
20260510011321 65 221 0.0 1.0 0.00 0.33 0.28 71 1009.1
20260510010834 65 221 0.0 1.0 0.00 0.33 0.28 68 1009.1
20260510010330 66 221 0.0 1.0 0.00 0.33 0.28 67 1009.0
20260510005822 66 229 0.0 1.0 0.00 0.33 0.28 66 1009.0
20260510005315 66 229 0.0 2.0 0.00 0.33 0.28 65 1009.0
20260510004828 67 215 0.0 2.0 0.00 0.33 0.28 65 1008.9
20260510004322 67 238 0.0 4.0 0.00 0.33 0.28 64 1008.7
20260510003814 68 246 1.0 5.0 0.00 0.33 0.28 63 1008.6
20260510003347 69 239 2.0 8.0 0.00 0.33 0.28 61 1008.5
20260510002818 69 236 3.0 8.0 0.00 0.33 0.28 60 1008.4
20260510002315 69 238 2.0 8.0 0.00 0.33 0.28 60 1008.4
20260510001828 70 240 4.0 8.0 0.00 0.33 0.28 59 1008.3
20260510001321 70 243 5.0 9.0 0.00 0.33 0.28 58 1008.2
20260510000814 70 254 5.0 9.0 0.00 0.33 0.28 58 1008.2
20260510000327 71 231 5.0 9.0 0.00 0.33 0.28 58 1008.1
20260509235820 71 240 5.0 9.0 0.00 0.33 0.28 56 1008.1
20260509235312 71 248 3.0 7.0 0.00 0.33 0.28 58 1008.0
20260509234825 72 238 2.0 7.0 0.00 0.33 0.28 57 1008.0
20260509234339 72 257 2.0 10.0 0.00 0.33 0.28 56 1008.0
20260509233834 72 238 5.0 10.0 0.00 0.33 0.28 56 1008.0
20260509233325 72 271 6.0 12.0 0.00 0.33 0.28 56 1008.0
20260509232818 73 248 7.0 12.0 0.00 0.33 0.28 57 1007.9
20260509232331 73 259 4.0 10.0 0.00 0.33 0.28 57 1007.9
20260509231824 73 207 5.0 12.0 0.00 0.33 0.28 56 1007.8
20260509231316 73 231 5.0 10.0 0.00 0.33 0.28 57 1007.6
20260509230849 73 250 7.0 10.0 0.00 0.33 0.28 55 1007.7
20260509230341 73 243 5.0 9.0 0.00 0.33 0.28 56 1007.7
20260509225813 73 257 5.0 13.0 0.00 0.33 0.28 56 1007.6
20260509225326 73 249 9.0 13.0 0.00 0.33 0.28 54 1007.7
20260509224822 73 245 7.0 15.0 0.00 0.33 0.28 55 1007.7
20260509224315 74 237 7.0 15.0 0.00 0.33 0.28 54 1007.7
20260509223829 74 231 6.0 12.0 0.00 0.33 0.28 55 1007.7
20260509223322 73 224 6.0 13.0 0.00 0.33 0.28 55 1007.6
20260509222327 73 269 7.0 14.0 0.00 0.33 0.28 56 1007.6
20260509221820 73 254 9.0 13.0 0.00 0.33 0.28 54 1007.6
20260509221317 74 220 7.0 15.0 0.00 0.33 0.28 54 1007.6